Location: Sweet Grass
(48.9965°N, 111.9649°W)
Time: 02:45:24
(UTC+00:00)

M-CUBED/EXP-1 PRIME - Visible Passes

Search period start: 29 March 2023 00:00
Search period end: 08 April 2023 00:00
Orbit: 411 x 587 km, 101.7° (Epoch: 28 March)

Date Brightness Start Highest point End Pass type
(mag) Time Alt. Az. Time Alt. Az. Time Alt. Az.
29 Mar ? 08:16:58 10° NNE 08:17:36 14° NNE 08:17:36 14° NNE visible
29 Mar ? 09:51:45 10° NNW 09:52:16 11° NNW 09:52:16 11° NNW visible
30 Mar ? 07:57:09 10° NNE 07:57:30 12° NNE 07:57:30 12° NNE visible
30 Mar ? 09:31:07 10° N 09:32:10 14° NNW 09:32:10 14° NNW visible
31 Mar ? 09:10:46 10° N 09:12:00 17° N 09:12:00 17° N visible
01 Apr ? 08:50:31 10° N 08:51:47 19° N 08:51:47 19° N visible
02 Apr ? 08:30:21 10° NNE 08:31:30 18° NNE 08:31:30 18° NNE visible
02 Apr ? 10:05:24 10° NNW 10:06:09 11° NW 10:06:09 11° NW visible
03 Apr ? 08:10:16 10° NNE 08:11:09 16° NNE 08:11:09 16° NNE visible
03 Apr ? 09:44:21 10° NNW 09:45:48 15° NNW 09:45:48 15° NNW visible
04 Apr ? 07:50:17 10° NE 07:50:45 13° NE 07:50:45 13° NE visible
04 Apr ? 09:23:42 10° N 09:25:23 20° NNW 09:25:23 20° NNW visible
05 Apr ? 09:03:11 10° N 09:04:54 23° N 09:04:54 23° N visible
06 Apr ? 08:42:45 10° NNE 08:44:22 23° NNE 08:44:22 23° NNE visible
06 Apr ? 10:18:08 10° NNW 10:19:00 11° NW 10:19:00 11° NW visible
07 Apr ? 08:22:24 10° NNE 08:23:46 20° NNE 08:23:46 20° NNE visible
07 Apr ? 09:56:36 10° NNW 09:58:24 16° NW 09:58:24 16° NW visible
